TimePST,TemperatureF,Dew PointF,Humidity,Sea Level PressureIn,VisibilityMPH,Wind Direction,Wind SpeedMPH,Gust SpeedMPH,PrecipitationIn,Events,Conditions,WindDirDegrees,DateUTC
12:00 AM,36.7,-9999,N/A,29.87,-9999.0,ENE,6.9,-,N/A,,Unknown,60,2013-03-05 08:00:00
1:00 AM,39,,,29.85,,ENE,6.9,,,,,60,2013-03-05 09:00:00
1:00 AM,39.0,-9999,N/A,29.85,-9999.0,ENE,6.9,-,N/A,,Unknown,60,2013-03-05 09:00:00
2:00 AM,40.6,-9999,N/A,29.83,-9999.0,NE,8.1,-,N/A,,Unknown,50,2013-03-05 10:00:00
3:00 AM,42.1,-9999,N/A,29.79,-9999.0,NE,6.9,-,N/A,,Unknown,50,2013-03-05 11:00:00
4:00 AM,42,,,29.79,,East,4.6,,,,,90,2013-03-05 12:00:00
4:00 AM,41.5,-9999,N/A,29.79,-9999.0,East,4.6,-,N/A,,Unknown,90,2013-03-05 12:00:00
5:00 AM,45.3,-9999,N/A,29.79,-9999.0,ESE,8.1,-,N/A,,Unknown,110,2013-03-05 13:00:00
6:00 AM,45.9,-9999,N/A,29.77,-9999.0,East,16.1,27.6,N/A,,Unknown,100,2013-03-05 14:00:00
7:00 AM,44,,,29.77,,East,13.8,,,,,90,2013-03-05 15:00:00
7:00 AM,44.4,-9999,N/A,29.77,-9999.0,East,13.8,23.0,N/A,,Unknown,90,2013-03-05 15:00:00
8:00 AM,45.0,-9999,N/A,29.76,-9999.0,East,10.4,20.7,N/A,,Unknown,90,2013-03-05 16:00:00
9:00 AM,46.2,-9999,N/A,29.77,-9999.0,East,15.0,25.3,N/A,,Unknown,100,2013-03-05 17:00:00
10:00 AM,45,,,29.78,,ESE,18.4,,,,,110,2013-03-05 18:00:00
10:00 AM,45.0,-9999,N/A,29.78,-9999.0,ESE,18.4,29.9,N/A,,Unknown,110,2013-03-05 18:00:00
11:00 AM,45.1,-9999,N/A,29.79,-9999.0,East,15.0,21.9,N/A,,Unknown,100,2013-03-05 19:00:00
12:00 PM,45.3,-9999,N/A,29.80,-9999.0,East,13.8,27.6,N/A,,Unknown,90,2013-03-05 20:00:00
1:00 PM,46,,,29.81,,ESE,17.3,,,,,110,2013-03-05 21:00:00
1:00 PM,45.5,-9999,N/A,29.81,-9999.0,ESE,17.3,29.9,N/A,,Unknown,110,2013-03-05 21:00:00
2:00 PM,46.2,-9999,N/A,29.82,-9999.0,ESE,13.8,26.5,N/A,,Unknown,110,2013-03-05 22:00:00
3:00 PM,46.6,-9999,N/A,29.82,-9999.0,ESE,12.7,23.0,N/A,,Unknown,110,2013-03-05 23:00:00
4:00 PM,46,,,29.82,,ESE,10.4,,,,,110,2013-03-06 00:00:00
4:00 PM,46.0,-9999,N/A,29.82,-9999.0,ESE,10.4,-,N/A,,Unknown,110,2013-03-06 00:00:00
5:00 PM,45.1,-9999,N/A,29.81,-9999.0,ESE,8.1,-,N/A,,Unknown,110,2013-03-06 01:00:00
6:00 PM,45.0,-9999,N/A,29.81,-9999.0,ESE,6.9,-,N/A,,Unknown,110,2013-03-06 02:00:00
7:00 PM,42,,,29.81,,ESE,5.8,,,,,110,2013-03-06 03:00:00
7:00 PM,41.5,-9999,N/A,29.81,-9999.0,ESE,5.8,-,N/A,,Unknown,110,2013-03-06 03:00:00
8:00 PM,40.6,-9999,N/A,29.81,-9999.0,ESE,5.8,-,N/A,,Unknown,110,2013-03-06 04:00:00
9:00 PM,38.5,-9999,N/A,29.81,-9999.0,NNE,5.8,-,N/A,,Unknown,20,2013-03-06 05:00:00
10:00 PM,38,,,29.81,,North,5.8,,,,,0,2013-03-06 06:00:00
10:00 PM,37.9,-9999,N/A,29.81,-9999.0,North,5.8,-,N/A,,Unknown,360,2013-03-06 06:00:00
11:00 PM,36.9,-9999,N/A,29.79,-9999.0,North,6.9,-,N/A,,Unknown,360,2013-03-06 07:00:00